K9BM Weather Reports


Display with metric or nautical units.
time (UTC)temp
F
wind
direction
speed
MPH
gust
MPH
rain 1hr
in
rain 24hr
in
rain mn
in
humidity
%
barometer
mb
20260903093505 60 201 5.0 7.0 0.00 0.00 0.00 27 1001.5
20260903093005 59 186 5.0 6.0 0.00 0.00 0.00 28 1001.4
20260903092505 59 183 5.0 8.0 0.00 0.00 0.00 28 1001.5
20260903092005 59 182 5.0 8.0 0.00 0.00 0.00 27 1001.4
20260903091005 59 201 4.0 6.0 0.00 0.00 0.00 28 1001.4
20260903090004 60 221 2.0 3.0 0.00 0.00 0.00 28 1001.3
20260903085504 60 233 3.0 5.0 0.00 0.00 0.00 28 1001.2
20260903085005 59 234 3.0 7.0 0.00 0.00 0.00 29 1001.1
20260903084505 59 233 4.0 8.0 0.00 0.00 0.00 29 1001.1
20260903084004 60 242 5.0 8.0 0.00 0.00 0.00 27 1001.1
20260903083504 61 221 4.0 6.0 0.00 0.00 0.00 26 1001.0
20260903083004 60 203 2.0 3.0 0.00 0.00 0.00 26 1000.9
20260903082504 60 202 2.0 3.0 0.00 0.00 0.00 26 1000.9
20260903082004 60 201 3.0 7.0 0.00 0.00 0.00 26 1001.0
20260903081505 60 201 2.0 7.0 0.00 0.00 0.00 26 1001.1
20260903081004 60 202 2.0 7.0 0.00 0.00 0.00 26 1001.1
20260903080004 61 185 2.0 9.0 0.00 0.00 0.00 26 1001.2
20260903075504 62 187 7.0 9.0 0.00 0.00 0.00 25 1001.2
20260903075004 63 205 4.0 6.0 0.00 0.00 0.00 24 1001.2
20260903074504 63 236 3.0 5.0 0.00 0.00 0.00 23 1001.2
20260903074005 63 276 0.0 0.0 0.00 0.00 0.00 23 1001.2
20260903073505 63 305 0.0 0.0 0.00 0.00 0.00 23 1001.2
20260903073005 63 310 0.0 0.0 0.00 0.00 0.00 22 1001.2
20260903072504 63 310 0.0 0.0 0.00 0.00 0.00 23 1001.1
20260903072004 63 310 0.0 0.0 0.00 0.00 0.00 22 1001.1
20260903071505 63 312 0.0 0.0 0.00 0.00 0.00 22 1001.2
20260903071005 64 312 0.0 0.0 0.00 0.00 0.00 22 1001.1
20260903070004 64 312 0.0 0.0 0.00 0.00 0.00 22 1001.1
20260903065504 64 312 0.0 0.0 0.00 0.00 0.00 23 1001.1
20260903065005 64 312 0.0 0.0 0.00 0.00 0.00 22 1001.1
20260903064505 64 312 0.0 0.0 0.00 0.00 0.00 22 1001.0
20260903064004 64 312 0.0 0.0 0.00 0.00 0.00 22 1001.0
20260903063504 64 312 0.0 0.0 0.00 0.00 0.00 22 1000.9
20260903063004 64 313 0.0 0.0 0.00 0.00 0.00 23 1000.8
20260903062005 65 339 0.0 1.0 0.00 0.00 0.00 23 1000.8
20260903061504 65 340 0.0 2.0 0.00 0.00 0.00 22 1000.7
20260903061005 65 340 0.0 3.0 0.00 0.00 0.00 21 1000.8
20260903060004 65 340 2.0 5.0 0.00 0.00 0.00 21 1000.9
20260903055504 65 241 0.0 0.0 0.00 0.00 0.00 22 1000.9
20260903055005 65 241 0.0 1.0 0.00 0.00 0.00 22 1001.1
20260903054504 65 241 0.0 2.0 0.00 0.00 0.00 21 1001.0
20260903054004 65 245 0.0 2.0 0.00 0.00 0.00 21 1001.0
20260903053504 65 245 0.0 2.0 0.00 0.00 0.00 21 1001.0
20260903053005 65 245 0.0 3.0 0.00 0.00 0.00 21 1001.0
20260903052004 64 245 2.0 3.0 0.00 0.00 0.00 22 1001.0
20260903051504 65 245 0.0 3.0 0.00 0.00 0.00 22 1001.1
20260903051004 66 244 0.0 3.0 0.00 0.00 0.00 22 1001.1
20260903050004 65 245 3.0 5.0 0.00 0.00 0.00 21 1001.0
20260903045504 66 242 3.0 7.0 0.00 0.00 0.00 21 1001.1
20260903045005 67 241 4.0 8.0 0.00 0.00 0.00 20 1001.0
20260903044004 66 246 5.0 8.0 0.00 0.00 0.00 21 1001.0
20260903043504 66 241 5.0 8.0 0.00 0.00 0.00 21 1001.1
20260903043004 66 242 5.0 9.0 0.00 0.00 0.00 21 1001.0
20260903042005 65 263 5.0 9.0 0.00 0.00 0.00 21 1001.1
20260903041504 65 269 6.0 9.0 0.00 0.00 0.00 21 1001.0
20260903041004 66 244 4.0 7.0 0.00 0.00 0.00 22 1001.0
20260903040004 66 239 4.0 6.0 0.00 0.00 0.00 21 1000.9
20260903035504 65 225 5.0 5.0 0.00 0.00 0.00 21 1001.0
20260903035004 64 201 3.0 5.0 0.00 0.00 0.00 22 1001.0
20260903034504 65 201 2.0 7.0 0.00 0.00 0.00 22 1000.9
20260903034005 66 199 4.0 7.0 0.00 0.00 0.00 21 1000.8
20260903033505 66 200 3.0 6.0 0.00 0.00 0.00 20 1000.7
20260903033004 66 200 3.0 7.0 0.00 0.00 0.00 20 1000.6
20260903032504 65 201 3.0 8.0 0.00 0.00 0.00 21 1000.6
20260903032004 66 182 7.0 10.0 0.00 0.00 0.00 21 1000.6
20260903031504 66 179 8.0 10.0 0.00 0.00 0.00 21 1000.5
20260903031004 66 178 7.0 8.0 0.00 0.00 0.00 20 1000.6
20260903025004 68 197 6.0 10.0 0.00 0.00 0.00 19 1000.6
20260903024504 69 199 6.0 10.0 0.00 0.00 0.00 19 1000.6
20260903023505 70 193 7.0 10.0 0.00 0.00 0.00 18 1000.6
20260903022004 71 208 7.0 12.0 0.00 0.00 0.00 17 1000.4
20260903021504 72 195 8.0 12.0 0.00 0.00 0.00 17 1000.3
20260903020004 73 200 11.0 20.0 0.00 0.00 0.00 15 1000.1
20260903015505 74 213 12.0 24.0 0.00 0.00 0.00 15 1000.1
20260903014504 74 208 14.0 22.0 0.00 0.00 0.00 15 999.9
20260903014004 74 197 12.0 20.0 0.00 0.00 0.00 16 999.9
20260903012504 76 193 18.0 30.0 0.00 0.00 0.00 14 999.9
20260903012004 76 196 11.0 25.0 0.00 0.00 0.00 14 999.9
20260903011504 76 197 10.0 24.0 0.00 0.00 0.00 13 999.8
20260903011004 77 196 14.0 26.0 0.00 0.00 0.00 13 999.9
20260903010004 77 192 17.0 29.0 0.00 0.00 0.00 13 999.8
20260903005504 77 199 9.0 24.0 0.00 0.00 0.00 14 999.8
20260903005005 77 201 9.0 17.0 0.00 0.00 0.00 15 999.8
20260903004504 77 227 10.0 17.0 0.00 0.00 0.00 15 999.8
20260903003504 77 211 10.0 20.0 0.00 0.00 0.00 14 999.7
20260903003005 77 215 12.0 20.0 0.00 0.00 0.00 13 999.7
20260903002005 78 207 10.0 20.0 0.00 0.00 0.00 14 999.4
20260903001004 78 218 11.0 18.0 0.00 0.00 0.00 13 999.4
20260902235004 77 216 13.0 23.0 0.00 0.00 0.00 14 999.4
20260902234505 78 218 12.0 23.0 0.00 0.00 0.00 13 999.3
20260902234004 78 219 14.0 23.0 0.00 0.00 0.00 13 999.3
20260902233503 79 222 14.0 21.0 0.00 0.00 0.00 13 999.2
20260902233004 78 231 14.0 21.0 0.00 0.00 0.00 13 999.1
20260902232504 79 228 13.0 20.0 0.00 0.00 0.00 13 999.1
20260902232004 79 233 12.0 20.0 0.00 0.00 0.00 13 999.0
20260902231504 79 234 12.0 18.0 0.00 0.00 0.00 14 999.0
20260902231004 80 233 11.0 23.0 0.00 0.00 0.00 14 999.0
20260902230004 80 234 13.0 23.0 0.00 0.00 0.00 13 999.0
20260902225504 80 230 14.0 21.0 0.00 0.00 0.00 14 998.9
20260902225004 80 229 12.0 24.0 0.00 0.00 0.00 13 998.8
20260902224504 81 228 17.0 24.0 0.00 0.00 0.00 13 998.7
20260902223504 83 237 15.0 23.0 0.00 0.00 0.00 13 998.6
20260902223006 82 222 13.0 20.0 0.00 0.00 0.00 14 998.5
20260902222006 80 222 8.0 21.0 0.00 0.00 0.00 18 998.6
20260902221505 80 236 10.0 20.0 0.00 0.00 0.00 17 998.6
20260902221006 79 226 7.0 14.0 0.00 0.00 0.00 18 998.5
20260902220006 78 263 2.0 7.0 0.00 0.00 0.00 25 998.7
20260902215506 78 266 3.0 7.0 0.00 0.00 0.00 24 998.8
20260902215006 78 310 3.0 8.0 0.00 0.00 0.00 24 998.8
20260902213506 78 5 2.0 14.0 0.00 0.00 0.00 25 998.7
20260902212506 78 306 5.0 13.0 0.00 0.00 0.00 27 998.8
20260902212006 78 317 10.0 13.0 0.00 0.00 0.00 26 998.8
20260902211005 79 255 3.0 9.0 0.00 0.00 0.00 23 998.8
20260902205506 81 161 6.0 16.0 0.00 0.00 0.00 21 999.0
20260902205006 81 147 12.0 16.0 0.00 0.00 0.00 21 998.9
20260902204506 81 155 6.0 12.0 0.00 0.00 0.00 22 999.0
20260902204005 82 170 6.0 10.0 0.00 0.00 0.00 22 999.0
20260902203006 82 232 5.0 14.0 0.00 0.00 0.00 23 999.2
20260902202506 80 121 7.0 14.0 0.00 0.00 0.00 23 999.3
20260902202006 80 55 3.0 12.0 0.00 0.00 0.00 24 999.3
20260902201505 79 165 2.0 10.0 0.00 0.00 0.00 25 999.4
20260902200006 78 256 7.0 14.0 0.00 0.00 0.00 27 999.7
20260902195006 77 243 6.0 12.0 0.00 0.00 0.00 29 1000.1
20260902194505 76 193 5.0 13.0 0.00 0.00 0.00 31 1000.3
20260902194006 75 230 7.0 13.0 0.00 0.00 0.00 31 1000.3
20260902193505 74 241 6.0 16.0 0.00 0.00 0.00 35 1000.5
20260902192505 74 249 13.0 21.0 0.00 0.00 0.00 35 1000.3
20260902192005 76 275 12.0 21.0 0.00 0.00 0.00 35 1000.3
20260902191506 77 312 11.0 15.0 0.00 0.00 0.00 30 1000.1
20260902191006 78 246 8.0 15.0 0.00 0.00 0.00 24 1000.2
20260902190006 78 217 6.0 10.0 0.00 0.00 0.00 25 1000.2
20260902185506 78 201 4.0 15.0 0.00 0.00 0.00 30 1000.2
20260902185006 79 305 7.0 15.0 0.00 0.00 0.00 30 1000.2
20260902184506 78 246 7.0 14.0 0.00 0.00 0.00 26 1000.3
20260902184005 77 231 3.0 7.0 0.00 0.00 0.00 32 1000.4
20260902183505 77 92 1.0 10.0 0.00 0.00 0.00 34 1000.5
20260902181506 74 21 0.0 3.0 0.00 0.00 0.00 39 1000.8
20260902181006 73 13 0.0 0.0 0.00 0.00 0.00 40 1001.0
20260902180007 71 12 0.0 3.0 0.00 0.00 0.00 42 1001.0
20260902175505 71 3 1.0 6.0 0.00 0.00 0.00 44 1001.1
20260902175006 70 335 2.0 6.0 0.00 0.00 0.00 45 1001.3
20260902174506 70 321 2.0 7.0 0.00 0.00 0.00 44 1001.3
20260902174006 70 315 3.0 8.0 0.00 0.00 0.00 45 1001.3
20260902173506 70 312 4.0 8.0 0.00 0.00 0.00 44 1001.4
20260902173006 70 308 0.0 5.0 0.00 0.00 0.00 45 1001.4
20260902172505 70 305 0.0 0.0 0.00 0.00 0.00 44 1001.5
20260902172006 70 305 0.0 0.0 0.00 0.00 0.00 44 1001.5
20260902171505 70 305 0.0 0.0 0.00 0.00 0.00 44 1001.5
20260902170005 71 75 0.0 3.0 0.00 0.00 0.00 43 1001.5
20260902165505 71 75 0.0 5.0 0.00 0.00 0.00 42 1001.5
20260902165006 72 75 2.0 7.0 0.00 0.00 0.00 42 1001.5
20260902164505 72 75 4.0 10.0 0.00 0.00 0.00 42 1001.3
20260902163506 71 55 4.0 10.0 0.00 0.00 0.00 43 1001.3
20260902163006 71 41 1.0 5.0 0.00 0.00 0.00 43 1001.5
20260902162006 70 302 0.0 3.0 0.00 0.00 0.00 44 1001.5
20260902161505 70 302 2.0 3.0 0.00 0.00 0.00 44 1001.5
20260902161005 69 308 1.0 3.0 0.00 0.00 0.00 45 1001.5
20260902160008 69 277 1.0 5.0 0.00 0.00 0.00 46 1001.6
20260902155505 68 315 2.0 7.0 0.00 0.00 0.00 45 1001.6
20260902155005 68 279 3.0 7.0 0.00 0.00 0.00 45 1001.7
20260902154506 68 288 3.0 7.0 0.00 0.00 0.00 46 1001.7
20260902154006 68 294 2.0 7.0 0.00 0.00 0.00 46 1001.8
20260902153005 67 277 3.0 8.0 0.00 0.00 0.00 47 1001.9
20260902152505 67 276 3.0 8.0 0.00 0.00 0.00 48 1002.0
20260902151506 66 276 5.0 9.0 0.00 0.00 0.00 51 1002.2
20260902150006 62 275 7.0 12.0 0.00 0.00 0.00 58 1002.3
20260902145505 61 268 7.0 12.0 0.00 0.00 0.00 60 1002.3
20260902144505 61 277 7.0 12.0 0.00 0.00 0.00 60 1002.2
20260902144006 61 273 8.0 10.0 0.00 0.00 0.00 60 1002.3
20260902143506 61 286 7.0 10.0 0.00 0.00 0.00 60 1002.3
20260902143005 61 283 6.0 8.0 0.00 0.00 0.00 60 1002.3
20260902142005 60 271 3.0 7.0 0.00 0.00 0.00 61 1002.6
20260902141505 60 268 4.0 7.0 0.00 0.00 0.00 61 1002.5
20260902141006 60 282 5.0 7.0 0.00 0.00 0.00 61 1002.5
20260902140005 60 264 1.0 8.0 0.00 0.00 0.00 61 1002.6
20260902135507 60 264 3.0 9.0 0.00 0.00 0.00 61 1002.7
20260902135005 60 255 5.0 10.0 0.00 0.00 0.00 60 1002.8
20260902134505 60 248 6.0 10.0 0.00 0.00 0.00 60 1002.9
20260902134006 61 261 7.0 9.0 0.00 0.00 0.00 60 1002.8
20260902133005 60 266 6.0 9.0 0.00 0.00 0.00 61 1002.6
20260902132505 59 273 6.0 8.0 0.00 0.00 0.00 63 1002.6
20260902132006 58 178 3.0 7.0 0.00 0.00 0.00 65 1002.4
20260902131006 57 167 5.0 7.0 0.00 0.00 0.00 66 1002.4
20260902130005 57 240 3.0 9.0 0.00 0.00 0.00 65 1002.4
20260902125506 57 246 7.0 9.0 0.00 0.00 0.00 65 1002.5
20260902125005 57 259 7.0 10.0 0.00 0.00 0.00 65 1002.7
20260902124505 58 257 7.0 12.0 0.00 0.00 0.00 64 1002.8
20260902124005 58 254 8.0 12.0 0.00 0.00 0.00 63 1002.9
20260902123505 59 260 10.0 12.0 0.00 0.00 0.00 62 1003.0
20260902122505 58 262 8.0 12.0 0.00 0.00 0.00 62 1002.8
20260902121506 58 257 7.0 12.0 0.00 0.00 0.00 62 1002.9
20260902121005 58 243 10.0 12.0 0.00 0.00 0.00 61 1003.1
20260902115505 60 239 7.0 10.0 0.00 0.00 0.00 59 1003.1
20260902115005 60 240 6.0 9.0 0.00 0.00 0.00 59 1003.3
20260902114506 60 232 6.0 9.0 0.00 0.00 0.00 59 1003.2
20260902114006 60 231 6.0 12.0 0.00 0.00 0.00 58 1003.1
20260902113506 61 235 6.0 12.0 0.00 0.00 0.00 58 1003.2
20260902113006 60 243 9.0 12.0 0.00 0.00 0.00 58 1003.2
20260902112505 61 245 8.0 10.0 0.00 0.00 0.00 58 1003.2
20260902111505 61 244 6.0 9.0 0.00 0.00 0.00 57 1003.2
20260902111005 61 257 6.0 9.0 0.00 0.00 0.00 57 1003.3
20260902110007 61 239 4.0 9.0 0.00 0.00 0.00 58 1003.5
20260902105505 61 193 7.0 10.0 0.00 0.00 0.00 58 1003.5
20260902105006 61 199 5.0 12.0 0.00 0.00 0.00 58 1003.5
20260902104506 62 231 6.0 13.0 0.00 0.00 0.00 58 1003.6
20260902104005 61 236 8.0 13.0 0.00 0.00 0.00 58 1003.7
20260902103505 61 231 8.0 12.0 0.00 0.00 0.00 58 1003.9
20260902103005 62 232 6.0 10.0 0.00 0.00 0.00 58 1003.9
20260902102505 62 230 6.0 12.0 0.00 0.00 0.00 58 1003.8
20260902102006 62 230 7.0 12.0 0.00 0.00 0.00 57 1004.1
20260902101505 62 231 7.0 12.0 0.00 0.00 0.00 57 1004.0
20260902101006 62 232 7.0 14.0 0.00 0.00 0.00 57 1004.0
20260902100005 63 237 9.0 22.0 0.00 0.00 0.00 55 1004.3
20260902095505 63 241 13.0 22.0 0.00 0.00 0.00 53 1004.2
20260902095005 64 234 10.0 18.0 0.00 0.00 0.00 52 1004.2
20260902094505 64 233 11.0 18.0 0.00 0.00 0.00 52 1004.2
20260902094005 64 235 10.0 17.0 0.00 0.00 0.00 51 1004.1